Location: Barber
(40.5307°N, 74.2579°W)
Time: 03:19:19
(UTC+00:00)

Daily predictions for brighter satellites

Satellite Brightness Start Highest point End
(mag) Time Altitude Azimuth Time Altitude Azimuth Time Altitude Azimuth
Cosmos 1536 Rocket 4.2 00:01:50 10° N 00:05:55 34° ENE 00:08:22 20° SE
Cosmos 372 Rocket 4.0 00:01:32 10° SSW 00:06:47 89° WNW 00:12:03 10° NNE
Cosmos 2263 Rocket 3.9 00:03:34 10° WSW 00:08:36 34° WNW 00:13:41 10° N
Cosmos 1464 Rocket 3.9 00:03:05 10° S 00:09:09 74° E 00:15:19 10° N
Cosmos 1844 4.0 00:04:33 10° S 00:09:52 41° ESE 00:15:08 10° NE
Cosmos 1025 Rocket 3.1 00:06:51 10° N 00:11:09 53° E 00:14:52 13° SSE
USA 186 2.3 00:11:48 34° E 00:12:13 35° ENE 00:15:12 10° N
BREEZE-M DEB (TANK) 3.2 00:09:44 10° SW 00:12:39 80° SE 00:21:18 10° NE
Cosmos 1844 Rocket 2.7 00:09:12 10° S 00:14:37 57° ESE 00:20:05 10° NNE
Cosmos 1867 3.6 00:11:07 10° NNW 00:16:37 88° SW 00:21:02 16° SSE
ISS -2.0 00:17:09 10° W 00:20:11 30° NNW 00:22:47 13° NNE
Cosmos 2151 Rocket 3.5 00:17:32 10° S 00:21:57 70° E 00:26:25 10° NNE
USA 234 3.6 00:17:38 10° ENE 00:23:46 42° SE 00:29:53 10° SSW
Cosmos 2150 Rocket 4.0 00:21:06 10° SSW 00:26:27 85° ESE 00:31:55 10° NNE
MetOp-A 4.4 00:26:18 28° SE 00:28:45 47° ENE 00:33:52 10° N
IRIS 4.5 00:27:00 10° WSW 00:30:10 47° S 00:30:10 47° S
Cosmos 1125 Rocket 3.5 00:25:35 10° S 00:30:47 61° ESE 00:36:02 10° NNE
MOS 1 4.4 00:27:57 24° SE 00:31:19 56° ENE 00:36:54 10° N
CZ-2C R/B 2.0 00:29:22 10° WSW 00:32:32 30° S 00:32:43 30° S
DMSP B5D2-2 4.0 00:31:48 10° NNE 00:37:03 61° E 00:42:16 10° S
NOSS 3-2 (C) 4.4 00:31:21 10° NNW 00:38:41 50° NE 00:42:21 32° ESE
Exosat Rocket 3.5 00:32:59 10° S 00:38:49 65° ESE 00:43:46 10° NNE
NOSS 3-4 (A) 3.6 00:35:03 10° S 00:40:27 40° ESE 00:42:16 32° ENE
NOSS 3-4 (C) 3.7 00:35:11 10° S 00:40:34 40° ESE 00:41:56 35° E
Cosmos 468 4.5 00:45:17 10° NNW 00:50:39 89° WSW 00:52:48 38° SSE
Meteor 1-15 Rocket 4.1 00:48:03 10° S 00:53:40 89° WNW 00:59:24 10° N
Cosmos 1674 2.9 00:50:44 10° N 00:54:01 62° NNE 00:54:01 62° NNE
Cosmos 1805 4.2 00:57:53 39° NNE 00:57:53 39° NNE 01:00:26 10° N
Resurs 01 Rocket 3.0 00:59:15 26° NNE 00:59:15 26° NNE 01:01:41 10° N
H-2A R/B 3.7 00:53:57 10° SSW 00:58:18 31° W 01:02:46 10° NNW
IRS-1A Rocket 4.5 00:55:43 21° S 00:59:45 76° WSW 01:05:38 10° NNW
Cosmos 1048 Rocket 4.1 00:55:59 10° NNW 01:01:19 76° WSW 01:03:09 42° S
Nadezhda 4 Rocket 4.2 00:56:43 10° NNW 01:02:47 69° W 01:07:55 15° S
ATLAS 2AS CENTAUR R/B 3.0 00:55:15 10° SSW 01:02:56 59° ESE 01:10:42 10° NE
BREEZE-M TANK 3.2 00:55:40 10° W 01:04:20 61° NNW 01:05:14 48° NE
CENTAUR R/B 3.2 01:03:20 10° NNW 01:11:33 71° NE 01:14:15 48° ESE
Okean 1 Rocket 3.4 01:16:18 62° WSW 01:16:36 64° W 01:21:05 10° N
Ariane Rocket 3.9 01:16:43 26° SSW 01:19:10 45° W 01:24:03 10° NNW
ATLAS 3B R/B 3.7 01:13:34 10° NNW 01:19:34 31° NE 01:20:03 30° NE
OBJECT-B 3.6 01:23:19 16° NNW 01:23:19 16° NNW 01:24:06 10° NNW
Cosmos 2082 Rocket 4.1 01:21:08 10° N 01:23:32 17° NNE 01:23:32 17° NNE
Cosmos 494 Rocket 4.1 01:21:32 10° NNW 01:26:47 70° WSW 01:26:49 70° WSW
USA 238 DEB 4.0 01:19:58 10° NW 01:27:13 69° WSW 01:29:18 49° S
USA 238 4.0 01:20:04 10° NW 01:27:19 70° WSW 01:29:22 50° S
Meteor 2-5 Rocket 3.7 01:21:55 10° NNW 01:27:37 82° W 01:27:52 79° SW
Meteor 1-22 Rocket 4.2 01:32:16 84° WSW 01:32:22 85° W 01:38:25 10° N
CZ-2C R/B 4.1 01:29:01 10° N 01:34:04 38° WNW 01:39:11 10° SW
Cosmos 1634 Rocket 4.1 01:37:16 47° SSW 01:39:03 70° W 01:45:14 10° N
COSMOS 2406 4.1 01:34:16 10° NNW 01:38:13 39° NNE 01:38:13 39° NNE
SPOT 3 Rocket 4.1 01:44:55 54° WNW 01:44:55 54° WNW 01:49:16 10° NNW
Meteor 1-24 Rocket 4.0 01:39:51 10° NNW 01:44:32 63° NW 01:44:32 63° NW
USA 234 3.7 02:04:41 40° NNE 02:06:53 58° NW 02:13:16 10° WSW
Lacrosse 5 rocket 4.5 02:05:44 10° N 02:06:10 11° N 02:06:10 11° N
Cosmos 1833 Rocket 4.3 02:19:07 10° NNW 02:21:52 30° NNW 02:21:52 30° NNW
ATLAS 2AS CENTAUR R/B 4.2 02:47:02 10° WSW 02:54:19 38° NW 03:01:35 10° NNE
CENTAUR R/B 4.4 02:54:52 10° NW 03:01:27 31° WSW 03:01:27 31° WSW
ATLAS 3B R/B 4.2 03:03:51 10° NW 03:07:18 32° NW 03:07:18 32° NW
Cosmos 1697 Rocket 4.5 07:06:51 27° NE 07:06:51 27° NE 07:09:21 10° NNE
Cosmos 1980 Rocket 3.9 07:10:59 29° ENE 07:10:59 29° ENE 07:14:13 10° NE
ADEOS II 3.8 07:25:55 10° N 07:28:11 27° N 07:28:11 27° N
ARIANE 5 R/B 4.0 07:29:19 10° NNE 07:32:21 33° NE 07:32:21 33° NE
IDEFIX/ARIANE 42P 3.7 07:35:04 10° NNE 07:39:15 41° ENE 07:39:15 41° ENE
SJ 16-02 3.9 07:47:56 10° NNE 07:51:12 20° ENE 07:54:27 10° ESE
Cosmos 1238 Rocket 4.4 07:51:02 10° N 07:57:31 58° E 08:00:20 31° SE
H-2A R/B 4.3 07:55:45 10° ESE 07:59:19 25° ENE 08:02:56 10° NNE
Lacrosse 5 3.2 08:06:13 31° N 08:06:13 31° N 08:09:42 10° NNE
CZ-2D R/B 4.5 08:03:36 10° NNW 08:04:03 11° NNW 08:04:03 11° NNW
Cosmos 2278 4.0 08:08:13 57° NNW 08:08:13 57° NNW 08:12:57 10° NNE
X-37B 3.5 08:18:53 19° ENE 08:18:53 19° ENE 08:20:02 10° ENE
NOSS 3-3 (A) 3.7 08:19:03 75° SSW 08:19:34 85° ESE 08:25:57 10° NE
NOSS 3-3 (C) 3.6 08:19:13 75° S 08:19:42 84° ESE 08:26:01 10° NE
USA 267 3.5 08:15:03 10° NE 08:21:20 52° NNW 08:22:28 47° WNW
Cosmos 1339 Rocket 4.4 08:29:39 39° S 08:32:11 89° W 08:38:26 10° N
Spot 4 Rocket 4.0 08:30:07 10° N 08:35:06 62° WNW 08:35:06 62° WNW
Meteor 2-7 Rocket 4.5 08:37:37 53° SSW 08:38:57 80° W 08:44:27 10° N
SL-8 R/B 4.0 08:39:54 44° NW 08:41:12 64° NNE 08:45:57 10° ESE
ADEOS Rocket 4.2 08:35:37 10° SE 08:42:05 46° ENE 08:47:56 10° N
Cosmos 921 Rocket 3.1 08:43:18 57° NNW 08:43:18 57° NNW 08:46:51 10° N
Cosmos 2360 Rocket 4.1 08:38:27 10° SSE 08:43:05 27° ESE 08:47:44 10° NE
MSX 3.7 08:39:24 10° N 08:45:10 70° WNW 08:47:05 43° SW
CZ-4C R/B 3.8 08:47:18 45° N 08:47:18 45° N 08:49:53 10° N
Cosmos 1812 2.7 08:46:42 70° N 08:46:42 70° N 08:50:10 10° N
Timation 1 Rocket 4.4 08:42:05 10° NW 08:47:51 50° WSW 08:53:36 10° S
Cosmos 1697 Rocket 4.2 08:48:35 20° NW 08:48:35 20° NW 08:52:18 10° N
Cosmos 1500 3.7 08:44:38 10° N 08:47:33 49° NNW 08:47:33 49° NNW
IRIDIUM 104 4.4 08:43:23 10° N 08:48:37 76° E 08:53:49 10° S
Cosmos 1707 Rocket 4.1 08:49:22 14° S 08:52:58 55° E 08:57:14 10° NNE
Cosmos 1980 Rocket 3.0 08:52:46 32° WNW 08:53:04 32° WNW 08:58:08 10° N
Cosmos 1666 3.6 08:50:22 10° N 08:54:04 47° E 08:57:44 10° SSE
USA 234 3.2 08:48:12 10° SE 08:54:44 85° NE 09:01:18 10° NW
IRIDIUM 114 4.2 08:52:31 10° N 08:57:46 89° W 09:02:59 10° S
Cosmos 2322 Rocket 2.4 08:55:32 18° S 08:59:45 71° ESE 09:05:26 10° NNE
BREEZE-M DEB (TANK) 3.2 08:55:57 31° WSW 08:59:50 85° SSE 09:03:17 10° ENE
BREEZE-M DEB (TANK) 3.5 09:01:04 34° NW 09:01:38 37° N 09:07:08 10° ENE
Cosmos 2263 Rocket 2.1 08:56:27 10° NNW 09:02:08 79° WSW 09:07:48 10° SSE
USA 32 4.3 08:58:16 10° N 09:03:32 68° E 09:08:44 10° SSE
IRIDIUM 103 4.2 09:01:41 10° N 09:06:54 73° W 09:12:05 10° S
SL-16 R/B 2.1 09:05:31 24° SSW 09:09:02 80° WNW 09:14:45 10° NNE
Cosmos 2228 Rocket 3.9 09:09:42 32° WNW 09:09:42 32° WNW 09:13:21 10° NNW
SL-4 R/B 2.2 09:08:18 39° SW 09:10:00 87° SSE 09:14:48 10° NE
ADEOS II 4.2 09:08:48 10° NW 09:09:07 10° NW 09:09:07 10° NW
Cosmos 1937 Rocket 4.2 09:05:08 10° N 09:10:12 56° ENE 09:15:14 10° SSE
FALCON 9 DEB 3.0 09:10:01 62° WSW 09:10:31 84° NW 09:13:57 10° NE
Cosmos 1733 Rocket 4.2 09:08:40 10° N 09:12:51 44° ENE 09:16:58 10° SSE
ARIANE 5 R/B 4.0 09:09:24 10° NNW 09:12:41 19° WNW 09:12:41 19° WNW
ADEOS 4.1 09:09:57 10° NNE 09:15:08 59° ESE 09:20:16 10° S
Meteor 1-4 Rocket 2.7 09:16:32 43° W 09:16:35 43° WNW 09:19:57 10° N
Cosmos 841 Rocket 4.0 09:11:36 10° S 09:16:43 61° ESE 09:21:54 10° NNE
Cosmos 44 Rocket 3.9 09:12:56 11° SSW 09:17:14 53° ESE 09:21:55 10° NE
Gbstr 26 Del rocket 4.5 09:10:06 10° NW 09:18:12 80° NE 09:25:17 10° ESE
Cosmos 2173 Rocket 4.5 09:12:13 10° N 09:18:32 66° E 09:24:51 10° SSE
IDEFIX/ARIANE 42P 3.7 09:15:18 10° NNW 09:19:23 23° WNW 09:20:03 23° WNW
CZ-2C R/B 2.5 09:14:29 10° N 09:19:36 68° WNW 09:24:45 10° SSW
Cosmos 1869 Rocket 3.8 09:15:49 10° NNW 09:19:56 43° W 09:24:01 10° SSW
Meteor 1-10 Rocket 4.5 09:17:09 19° SW 09:21:09 50° WNW 09:26:51 10° N
Cosmos 2227 4.3 09:15:46 10° NNW 09:21:12 50° WSW 09:26:36 10° S
CZ-2C R/B 4.1 09:19:14 10° NNW 09:21:45 22° WNW 09:21:45 22° WNW
ERBS 3.7 09:22:46 23° NW 09:23:13 24° NW 09:26:00 10° NNE
IRIDIUM 106 4.5 09:20:09 10° NNW 09:25:10 49° W 09:30:09 10° SSW
Cosmos 1763 Rocket 3.6 09:21:34 19° SW 09:25:15 57° WNW 09:30:30 10° NNE
Cosmos 1862 Rocket 4.0 09:22:49 10° S 09:27:09 64° E 09:31:29 10° NNE
SJ-6F 4.3 09:25:03 10° NNE 09:29:10 90° WNW 09:33:14 10° SSW
SJ 16-02 1.8 09:25:51 10° NW 09:29:53 36° WSW 09:33:54 10° SSW
PSLV R/B 3.9 09:28:04 10° N 09:32:01 40° WNW 09:34:43 18° SW
Cosmos 967 Rocket 4.5 09:27:03 13° SW 09:32:48 74° WNW 09:39:14 10° NNE
Cosmos 1743 4.4 09:29:44 10° N 09:33:17 37° ENE 09:36:50 10° SSE
CZ-4B R/B 1.2 09:31:24 10° SSE 09:34:31 86° ENE 09:37:45 10° NNW
H-2A R/B 2.9 09:31:20 10° SSW 09:35:08 30° W 09:39:02 10° NW
DEBRIS 2.8 09:34:58 22° WNW 09:36:38 67° SSW 09:43:06 10° SE
Cosmos 1570 Rocket 4.0 09:33:42 10° SSW 09:39:00 86° WNW 09:44:22 10° NNE
PKM 4.4 09:37:37 10° NW 09:41:11 58° NE 09:45:20 10° ESE
Cosmos 1689 Rocket 3.7 09:41:24 10° SE 09:44:10 38° ENE 09:46:57 10° N
ERS-2 2.9 09:44:51 10° SSW 09:48:06 30° W 09:51:24 10° NW
Cosmos 2016 Rocket 4.2 09:43:09 10° N 09:49:17 76° E 09:55:21 10° SSE
Lacrosse 5 4.1 09:46:47 10° NW 09:49:23 14° NNW 09:52:00 10° NNE
Cosmos 2333 Rocket 3.8 09:44:22 10° S 09:49:37 38° ESE 09:54:53 10° NE
Cosmos 1000 Rocket 4.5 09:44:23 10° SSW 09:50:33 67° W 09:56:41 10° N
Cosmos 990 Rocket 4.4 09:45:53 10° NW 09:50:41 39° WSW 09:55:30 10° S
Okean 1 3.9 09:47:32 10° S 09:51:31 61° E 09:55:32 10° NNE
Cosmos 540 Rocket 3.5 09:46:50 10° SSW 09:51:57 64° WNW 09:57:07 10° NNE
Meteor 2-20 4.4 09:46:18 10° S 09:52:27 82° W 09:58:36 10° N
CZ-4B R/B 3.6 09:49:52 10° NNE 09:53:25 50° E 09:56:54 10° S
X-37B 0.6 09:51:10 13° WNW 09:53:57 79° NNE 09:57:08 10° ESE
CZ-4B R/B 4.1 09:50:53 10° N 09:55:15 82° WNW 09:59:43 10° SSW
Cosmos 2322 4.4 09:52:28 10° S 09:58:00 58° ESE 10:03:33 10° NNE
ALOS 2.2 09:54:49 10° N 09:59:28 67° WNW 10:04:05 10° SSW
Cosmos 1484 Rocket 2.9 09:55:42 10° N 09:59:37 56° WNW 10:03:32 10° SSW
COSMO-SKYMED 1 3.2 09:57:42 10° SSE 10:01:59 63° ENE 10:06:17 10° N
NOSS 3-4 (A) 4.0 09:57:06 10° NW 10:04:16 87° WSW 10:12:11 10° SSE
NOSS 3-4 (C) 4.0 09:57:12 10° NW 10:04:22 88° WSW 10:12:18 10° SSE
Cosmos 1536 3.7 10:03:34 10° NNW 10:07:06 29° W 10:10:37 10° SSW
Cosmos 1725 Rocket 4.1 10:02:54 10° N 10:09:08 89° E 10:15:18 10° S
Meteor 1-31 Rocket 3.0 10:07:27 10° N 10:11:09 49° WNW 10:14:52 10° SSW
Cosmos 1437 Rocket 2.7 10:09:43 10° SSW 10:13:27 58° WNW 10:17:14 10° N
Cosmos 2100 Rocket 4.4 10:09:32 10° NNW 10:15:28 42° W 10:21:22 10° SSW
Cosmos 2333 4.4 10:10:01 10° SSW 10:15:48 83° ESE 10:21:37 10° NNE
Cosmos 1544 3.0 10:12:31 10° N 10:16:07 89° E 10:19:41 10° S
PSLV R/B 3.9 10:12:45 10° SSE 10:16:48 82° W 10:20:54 10° NNW
USA 281 4.4 10:12:45 10° NE 10:19:04 47° ESE 10:25:20 10° S
deb Chang Zheng 4 4.5 10:16:07 10° N 10:19:48 28° WNW 10:23:27 10° SW
Cosmos 1802 Rocket 4.2 10:14:54 10° NNW 10:20:52 51° W 10:26:53 10° SSW
